FW5637 Weather Reports


time (UTC)temp
C
wind
direction
speed
KPH
gust
KPH
rain 1hr
cm
rain 24hr
cm
rain mn
cm
humidity
%
barometer
mb
20260505101604 17 234 6.4 29.0 0.00 0.00 0.00 66 1010.0
20260505100119 -17 0 0.0 0.0 0.00 0.00 0.00 100
20260505094528 17 239 4.8 12.9 0.00 0.00 0.00 69 1009.9
20260505093030 17 252 3.2 14.5 0.00 0.00 0.00 70 1009.9
20260505091531 17 59 1.6 30.6 0.00 0.00 0.00 70 1009.8
20260505090106 16 96 3.2 17.7 0.00 0.00 0.00 70 1009.7
20260505084533 17 240 1.6 8.0 0.00 0.00 0.00 68 1009.6
20260505083031 17 134 1.6 11.3 0.00 0.00 0.00 67 1009.6
20260505081532 18 40 1.6 8.0 0.00 0.00 0.00 66 1009.5
20260505080104 18 243 0.0 4.8 0.00 0.00 0.00 66 1009.5
20260505074607 18 232 3.2 16.1 0.00 0.00 0.00 67 1009.4
20260505073106 17 255 3.2 20.9 0.00 0.00 0.00 69 1009.3
20260505071533 16 173 3.2 9.7 0.00 0.00 0.00 70 1009.2
20260505064605 17 121 0.0 6.4 0.00 0.00 0.00 64 1009.1
20260505063029 18 126 1.6 6.4 0.00 0.00 0.00 61 1008.9
20260505061534 19 192 0.0 8.0 0.00 0.00 0.00 59 1008.8
20260505060030 20 252 3.2 11.3 0.00 0.00 0.00 58 1008.7
20260505054532 20 259 3.2 9.7 0.00 0.00 0.00 57 1008.6
20260505053032 20 253 4.8 11.3 0.00 0.00 0.00 57 1008.4
20260505051609 20 247 3.2 11.3 0.00 0.00 0.00 56 1008.4
20260505041531 20 234 3.2 12.9 0.00 0.00 0.00 53 1007.9
20260505040046 20 223 3.2 9.7 0.00 0.00 0.00 52 1007.6
20260505034533 21 239 3.2 9.7 0.00 0.00 0.00 51 1007.4
20260505033033 21 227 4.8 16.1 0.00 0.00 0.00 50 1007.2
20260505031529 21 232 6.4 16.1 0.00 0.00 0.00 50 1007.1
20260505030032 22 251 3.2 11.3 0.00 0.00 0.00 47 1006.9
20260505024540 23 241 6.4 25.7 0.00 0.00 0.00 45 1006.7
20260505023030 24 234 9.7 20.9 0.00 0.00 0.00 44 1006.6
20260505021531 25 236 8.0 16.1 0.00 0.00 0.00 43 1006.6
20260505020033 26 271 4.8 17.7 0.00 0.00 0.00 41 1006.6
20260505014607 27 254 6.4 20.9 0.00 0.00 0.00 40 1006.5
20260505013031 27 250 8.0 24.1 0.00 0.00 0.00 39 1006.4
20260505011530 27 256 12.9 32.2 0.00 0.00 0.00 38 1006.4
20260505010144 27 260 9.7 20.9 0.00 0.00 0.00 39 1006.3
20260505004529 28 240 9.7 29.0 0.00 0.00 0.00 38 1006.3
20260505003032 28 260 9.7 27.4 0.00 0.00 0.00 38 1006.4
20260505000031 27 266 8.0 16.1 0.00 0.00 0.00 40 1006.5
20260504231607 28 289 9.7 22.5 0.00 0.00 0.00 40 1006.6
20260504230031 28 269 11.3 27.4 0.00 0.00 0.00 39 1006.8
20260504223102 28 296 8.0 22.5 0.00 0.00 0.00 39 1007.1
20260504221531 28 253 6.4 20.9 0.00 0.00 0.00 39 1007.3
20260504220031 28 273 4.8 14.5 0.00 0.00 0.00 39 1007.3
20260504214530 28 294 9.7 19.3 0.00 0.00 0.00 37 1007.6
20260504213030 30 279 6.4 19.3 0.00 0.00 0.00 36 1007.7
20260504211533 31 268 6.4 22.5 0.00 0.00 0.00 33 1007.8
20260504210031 31 280 4.8 12.9 0.00 0.00 0.00 35 1008.0
20260504204530 30 328 4.8 16.1 0.00 0.00 0.00 34 1008.1
20260504203108 30 282 8.0 19.3 0.00 0.00 0.00 34 1008.2
20260504201607 30 269 4.8 12.9 0.00 0.00 0.00 35 1008.4
20260504200031 30 287 8.0 22.5 0.00 0.00 0.00 35 1008.5
20260504194530 29 289 4.8 16.1 0.00 0.00 0.00 36 1008.5
20260504191529 28 295 8.0 19.3 0.00 0.00 0.00 36 1008.8
20260504190033 28 279 4.8 17.7 0.00 0.00 0.00 37 1008.8
20260504184531 27 319 4.8 17.7 0.00 0.00 0.00 39 1008.9
20260504183031 27 312 8.0 22.5 0.00 0.00 0.00 39 1008.9
20260504181529 27 303 9.7 25.7 0.00 0.00 0.00 39 1009.0
20260504180030 27 294 3.2 11.3 0.00 0.00 0.00 42 1009.0
20260504174530 26 145 1.6 16.1 0.00 0.00 0.00 48 1008.9
20260504173029 26 173 4.8 11.3 0.00 0.00 0.00 49 1009.0
20260504171529 25 41 3.2 9.7 0.00 0.00 0.00 49 1009.2
20260504170108 24 44 0.0 4.8 0.00 0.00 0.00 52 1009.3
20260504120107 8 330 0.0 4.8 0.00 0.00 0.00 92 1009.0